Greenville/Spartanburg, SC

10:31 PM EDT on October 16, 2017 (GMT -0400)
Greenville-Spartanburg International

Weather History for KGSP - March, 2013

Change the Weather History Date:

Friday, March 22, 2013

  Actual Average Record
Temperature  
Mean Temperature 38 °F 54 °F  
Max Temperature 49 °F 66 °F 85 °F (1935)
Min Temperature 26 °F 43 °F 20 °F (1906)
Degree Days  
Heating Degree Days 27 11  
Month to date heating degree days 390 297  
Since 1 July heating degree days 2576 2746  
Cooling Degree Days 0 0  
Month to date cooling degree days 2 0  
Year to date cooling degree days 2 0  
Moisture  
Dew Point 18 °F    
Average Humidity 46    
Maximum Humidity 63    
Minimum Humidity 29    
Precipitation  
Precipitation 0.00 in 0.14 in 1.17 in (1953)
Month to date precipitation 1.77 3.24  
Year to date precipitation 10.92 11.03  
Snow  
Snow 0.00 in 0.00 in 0.50 in (1914)
Month to date snowfall T 0.7  
Since 1 July snowfall 2.0 4.5  
Snow Depth 0.00 in    
Sea Level Pressure  
Sea Level Pressure 30.02 in    
Wind  
Wind Speed 5 mph (SW)    
Max Wind Speed 15 mph    
Max Gust Speed 20 mph    
Visibility 10 miles    
Events      
T = Trace of Precipitation, MM = Missing Value Source: NWS Daily Summary

Daily Weather History Graph

Daily Weather History Graph

Search for Another Location

Airport or City:

Trip Planner

Search our weather history database for the weather conditions in past years. The results will help you decide how hot, cold, wet, or windy it might be!

Date:

Astronomy

Mar. 22, 2013 Rise Set
Actual Time 7:29 AM EDT 7:42 PM EDT
Civil Twilight 7:04 AM EDT 8:07 PM EDT
Nautical Twilight 6:34 AM EDT 8:37 PM EDT
Astronomical Twilight 6:04 AM EDT 9:07 PM EDT
Moon 3:17 PM EDT (3/22) 4:19 AM EDT (3/22)
Length of Visible Light 13h 03m
Length of Day
12h 13m
Waxing Gibbous, 77% of the Moon is Illuminated
Mar 22
Waxing Gibbous
Mar 27
Full
Apr 3
Last Quarter
Apr 10
New
Apr 18
First Quarter

Hourly Weather History & Observations

Time (EDT) Temp. Windchill Dew Point Humidity Pressure Visibility Wind Dir Wind Speed Gust Speed Precip Events Conditions
12:53 AM 30.9 °F - 14.0 °F 50% 29.97 in 10.0 mi Calm Calm - N/A   Clear
1:53 AM 30.9 °F - 14.0 °F 50% 29.97 in 10.0 mi Calm Calm - N/A   Clear
2:53 AM 30.0 °F - 12.9 °F 49% 29.97 in 10.0 mi Calm Calm - N/A   Clear
3:53 AM 28.0 °F - 17.1 °F 63% 29.99 in 10.0 mi Calm Calm - N/A   Clear
4:53 AM 28.0 °F - 16.0 °F 61% 30.00 in 10.0 mi Calm Calm - N/A   Clear
5:53 AM 28.9 °F - 15.1 °F 56% 30.01 in 10.0 mi Calm Calm - N/A   Mostly Cloudy
6:53 AM 28.0 °F 24.2 °F 15.1 °F 58% 30.04 in 10.0 mi South 3.5 mph - N/A   Clear
7:53 AM 28.0 °F - 16.0 °F 61% 30.06 in 10.0 mi Calm Calm - N/A   Clear
8:53 AM 32.0 °F 28.7 °F 15.1 °F 50% 30.07 in 10.0 mi SSE 3.5 mph - N/A   Overcast
9:53 AM 33.1 °F 28.7 °F 14.0 °F 46% 30.07 in 10.0 mi South 4.6 mph - N/A   Overcast
10:53 AM 34.0 °F 31.0 °F 15.1 °F 46% 30.08 in 10.0 mi SSW 3.5 mph - N/A   Overcast
11:53 AM 39.0 °F - 15.1 °F 38% 30.06 in 10.0 mi Calm Calm - N/A   Overcast
12:53 PM 44.1 °F - 16.0 °F 32% 30.04 in 10.0 mi Calm Calm - N/A   Partly Cloudy
1:53 PM 45.0 °F 40.6 °F 17.1 °F 33% 30.04 in 10.0 mi SSW 8.1 mph - N/A   Overcast
2:53 PM 48.0 °F - 17.1 °F 29% 30.01 in 10.0 mi SW 9.2 mph - N/A   Overcast
3:53 PM 46.9 °F - 18.0 °F 32% 30.01 in 10.0 mi SW 11.5 mph - N/A   Overcast
4:53 PM 48.0 °F - 18.0 °F 30% 29.99 in 10.0 mi SW 11.5 mph - N/A   Overcast
5:53 PM 48.0 °F - 19.9 °F 33% 29.98 in 10.0 mi WSW 8.1 mph - N/A   Overcast
6:53 PM 46.9 °F - 21.0 °F 36% 29.99 in 10.0 mi SW 6.9 mph - N/A   Overcast
7:53 PM 46.0 °F 41.9 °F 21.9 °F 39% 30.00 in 10.0 mi SW 8.1 mph - N/A   Overcast
8:53 PM 46.9 °F - 23.0 °F 39% 30.00 in 10.0 mi WSW 5.8 mph - N/A   Overcast
9:53 PM 46.0 °F 41.9 °F 23.0 °F 40% 30.02 in 10.0 mi WSW 8.1 mph - N/A   Overcast
10:53 PM 45.0 °F 41.8 °F 24.1 °F 44% 30.02 in 10.0 mi WSW 5.8 mph - N/A   Overcast
11:53 PM 45.0 °F 42.6 °F 26.1 °F 48% 30.02 in 10.0 mi SW 4.6 mph - N/A   Overcast